Location: Cosy Dell
(34.2789°N, 117.4537°W)
Time: 21:09:37
(UTC+00:00)

COBE Rocket - Pass Details

Date: 14 July 2020
Orbit: 679 x 783 km, 97.1° (Epoch: 13 August)

Event Time Altitude Azimuth Distance (km) Brightness Sun altitude
Exits shadow 10:41:21 48° 196° (SSW) 982 4.1 -21.7°
Maximum altitude 10:42:40 69° 260° (W) 805 3.8 -21.5°
Drops below altitude 10° 10:47:36 10° 343° (NNW) 2,243 6.8 -20.8°
Sets 10:49:52 0° 346° (NNW) 3,153 7.6 -20.5°
